Scio, NY

10:12 AM EST on February 25, 2017 (GMT -0500)
Wellsville Municipal-Tarantine

Weather History for KELZ - December, 2012

Change the Weather History Date:

Friday, December 28, 2012

  Actual Average (KDSV) Record (KDSV)
Temperature  
Mean Temperature 22 °F -  
Max Temperature 24 °F 33 °F 61 °F (1971)
Min Temperature 19 °F 18 °F -6 °F (1993)
Degree Days  
Heating Degree Days 44    
Moisture  
Dew Point 19 °F    
Average Humidity 89    
Maximum Humidity 93    
Minimum Humidity 84    
Precipitation  
Precipitation 0.00 in - - ()
Sea Level Pressure  
Sea Level Pressure 30.05 in    
Wind  
Wind Speed 8 mph (WNW)    
Max Wind Speed 15 mph    
Max Gust Speed 17 mph    
Visibility 6 miles    
Events      
Averages and records for this station are not official NWS values.
T = Trace of Precipitation, MM = Missing Value Source: NWS Daily Summary

Daily Weather History Graph

Daily Weather History Graph

Search for Another Location

Airport or City:

Trip Planner

Search our weather history database for the weather conditions in past years. The results will help you decide how hot, cold, wet, or windy it might be!

Date:

Astronomy

Dec. 28, 2012 Rise Set
Actual Time 7:39 AM EST 4:47 PM EST
Civil Twilight 7:08 AM EST 5:19 PM EST
Nautical Twilight 6:32 AM EST 5:54 PM EST
Astronomical Twilight 5:58 AM EST 6:28 PM EST
Moon 5:23 PM EST (12/28) 7:31 AM EST (12/28)
Length of Visible Light 10h 11m
Length of Day
9h 08m
Full, 100% of the Moon is Illuminated
Dec 28
Full
Jan 4
Last Quarter
Jan 11
New
Jan 18
First Quarter
Jan 26
Full

Hourly Weather History & Observations

Time (EST) Temp. Windchill Dew Point Humidity Pressure Visibility Wind Dir Wind Speed Gust Speed Precip Events Conditions
12:56 AM 23.0 °F 12.4 °F 21.0 °F 92% 30.03 in 3.0 mi NW 10.4 mph - N/A   Overcast
1:04 AM 23.0 °F 13.1 °F 21.2 °F 93% 29.93 in 2.5 mi NW 9.2 mph - N/A   Overcast
1:56 AM 23.0 °F 10.6 °F 21.0 °F 92% 30.05 in 2.5 mi NW 13.8 mph - N/A   Overcast
2:49 AM 23.0 °F 13.1 °F 19.4 °F 86% 29.96 in 1.8 mi NNW 9.2 mph 16.1 mph N/A   Overcast
2:56 AM 23.0 °F 13.1 °F 19.9 °F 88% 30.06 in 1.5 mi NNW 9.2 mph - N/A   Overcast
3:25 AM 21.2 °F 10.1 °F 19.4 °F 93% 29.96 in 3.0 mi NNW 10.4 mph - N/A   Overcast
3:32 AM 21.2 °F 12.6 °F 19.4 °F 93% 29.96 in 2.0 mi NW 6.9 mph 17.3 mph N/A   Overcast
3:45 AM 21.2 °F 10.9 °F 19.4 °F 93% 29.97 in 3.0 mi NW 9.2 mph - N/A   Overcast
3:56 AM 21.9 °F 12.5 °F 19.9 °F 92% 30.07 in 3.0 mi NW 8.1 mph - N/A   Overcast
4:33 AM 21.2 °F 9.5 °F 19.4 °F 93% 29.98 in 2.0 mi NW 11.5 mph - N/A   Overcast
4:53 AM 21.2 °F 10.9 °F 19.4 °F 93% 29.99 in 3.0 mi NW 9.2 mph - N/A   Overcast
4:56 AM 21.9 °F 11.0 °F 19.9 °F 92% 30.09 in 4.0 mi NW 10.4 mph - N/A   Overcast
5:56 AM 21.9 °F 13.4 °F 19.9 °F 92% 30.10 in 7.0 mi NW 6.9 mph - N/A   Overcast
6:56 AM 21.9 °F 8.7 °F 19.0 °F 89% 30.11 in 4.0 mi WNW 15.0 mph - N/A   Overcast
7:56 AM 21.9 °F 12.5 °F 19.0 °F 89% 30.13 in 2.5 mi WNW 8.1 mph - N/A   Overcast
8:20 AM 21.2 °F 13.6 °F 19.4 °F 93% 30.02 in 3.0 mi WNW 5.8 mph - N/A   Overcast
8:44 AM 21.2 °F 12.6 °F 19.4 °F 93% 30.03 in 7.0 mi West 6.9 mph - N/A   Overcast
8:56 AM 21.9 °F 11.7 °F 19.0 °F 89% 30.13 in 7.0 mi WNW 9.2 mph - N/A   Overcast
9:06 AM 21.2 °F 12.6 °F 19.4 °F 93% 30.03 in 8.0 mi West 6.9 mph - N/A   Overcast
9:56 AM 21.9 °F 15.7 °F 19.9 °F 92% 30.14 in 10.0 mi WNW 4.6 mph - N/A   Overcast
10:56 AM 23.0 °F 17.0 °F 19.9 °F 88% 30.14 in 10.0 mi WSW 4.6 mph - N/A   Overcast
11:03 AM 23.0 °F 15.8 °F 19.4 °F 86% 30.03 in 10.0 mi WNW 5.8 mph - N/A   Overcast
11:56 AM 23.0 °F 15.8 °F 19.9 °F 88% 30.12 in 10.0 mi WNW 5.8 mph - N/A   Overcast
12:56 PM 23.0 °F 15.8 °F 19.9 °F 88% 30.09 in 10.0 mi West 5.8 mph - N/A   Overcast
1:12 PM 23.0 °F 14.7 °F 19.4 °F 86% 30.01 in 10.0 mi WSW 6.9 mph - N/A   Overcast
1:56 PM 24.1 °F 13.1 °F 19.9 °F 84% 30.13 in 10.0 mi West 11.5 mph 17.3 mph N/A   Overcast
2:56 PM 24.1 °F 13.1 °F 19.9 °F 84% 30.14 in 10.0 mi WNW 11.5 mph - N/A   Overcast
3:56 PM 24.1 °F 16.0 °F 19.9 °F 84% 30.12 in 10.0 mi NW 6.9 mph - N/A   Overcast
4:56 PM 24.1 °F 19.7 °F 19.9 °F 84% 30.09 in 10.0 mi West 3.5 mph - N/A   Overcast
5:56 PM 24.1 °F - 19.9 °F 84% 30.09 in 10.0 mi Calm Calm - N/A   Overcast
6:34 PM 23.0 °F 17.0 °F 19.4 °F 86% 29.99 in 10.0 mi South 4.6 mph - N/A   Overcast
7:56 PM 21.0 °F 14.6 °F 17.1 °F 85% 30.09 in 10.0 mi SW 4.6 mph - N/A   Clear
8:56 PM 21.0 °F - 17.1 °F 85% 30.06 in 10.0 mi Calm Calm - N/A   Clear
9:06 PM 21.2 °F - 17.6 °F 86% 29.97 in 10.0 mi Calm Calm - N/A   Partly Cloudy
9:24 PM 19.4 °F 14.3 °F 17.6 °F 93% 29.96 in 10.0 mi SSE 3.5 mph - N/A   Mostly Cloudy
9:56 PM 19.9 °F 11.1 °F 18.0 °F 92% 30.06 in 9.0 mi South 6.9 mph - N/A   Overcast
10:31 PM 19.4 °F 11.5 °F 17.6 °F 93% 29.95 in 5.0 mi SSE 5.8 mph - N/A   Overcast
10:56 PM 19.9 °F 12.1 °F 18.0 °F 92% 30.05 in 6.0 mi SSE 5.8 mph - N/A   Overcast
11:56 PM 21.0 °F 14.6 °F 18.0 °F 88% 30.03 in 5.0 mi SE 4.6 mph - N/A   Overcast